TimeCST,TemperatureF,Dew PointF,Humidity,Sea Level PressureIn,VisibilityMPH,Wind Direction,Wind SpeedMPH,Gust SpeedMPH,PrecipitationIn,Events,Conditions,WindDirDegrees,DateUTC
12:53 AM,18.0,9.0,68,30.49,10.0,NNE,5.8,-,N/A,,Clear,30,2013-02-01 06:53:00
1:53 AM,17.1,9.0,71,30.48,10.0,Calm,Calm,-,N/A,,Clear,0,2013-02-01 07:53:00
2:53 AM,15.1,10.0,80,30.51,10.0,Calm,Calm,-,N/A,,Clear,0,2013-02-01 08:53:00
3:53 AM,14.0,10.9,88,30.49,10.0,Calm,Calm,-,N/A,,Clear,0,2013-02-01 09:53:00
4:53 AM,15.1,8.1,74,30.49,10.0,Calm,Calm,-,N/A,,Clear,0,2013-02-01 10:53:00
6:53 AM,12.9,9.0,84,30.50,10.0,Calm,Calm,-,N/A,,Clear,0,2013-02-01 12:53:00
7:53 AM,15.1,10.9,84,30.51,10.0,Calm,Calm,-,N/A,,Clear,0,2013-02-01 13:53:00
8:53 AM,19.9,8.1,60,30.51,10.0,SE,4.6,-,N/A,,Clear,130,2013-02-01 14:53:00
9:53 AM,21.9,6.1,51,30.49,10.0,ESE,6.9,-,N/A,,Clear,110,2013-02-01 15:53:00
10:53 AM,26.1,8.1,47,30.48,10.0,South,3.5,-,N/A,,Clear,170,2013-02-01 16:53:00
12:53 PM,33.1,6.1,32,30.39,10.0,SSE,6.9,-,N/A,,Clear,150,2013-02-01 18:53:00
1:53 PM,37.0,8.1,30,30.33,10.0,South,8.1,-,N/A,,Clear,180,2013-02-01 19:53:00
2:53 PM,39.0,10.0,30,30.29,10.0,South,8.1,-,N/A,,Clear,180,2013-02-01 20:53:00
3:53 PM,39.9,12.9,33,30.25,10.0,SSE,12.7,-,N/A,,Clear,150,2013-02-01 21:53:00
4:53 PM,39.0,15.1,38,30.23,10.0,SSE,9.2,-,N/A,,Clear,160,2013-02-01 22:53:00
5:53 PM,36.0,17.1,46,30.21,10.0,Calm,Calm,-,N/A,,Clear,0,2013-02-01 23:53:00
6:53 PM,26.1,18.0,71,30.24,10.0,Calm,Calm,-,N/A,,Clear,0,2013-02-02 00:53:00
7:53 PM,26.1,18.0,71,30.24,10.0,Calm,Calm,-,N/A,,Clear,0,2013-02-02 01:53:00
8:53 PM,24.1,19.0,81,30.25,10.0,Calm,Calm,-,N/A,,Clear,0,2013-02-02 02:53:00
9:53 PM,23.0,19.0,85,30.24,10.0,Calm,Calm,-,N/A,,Clear,0,2013-02-02 03:53:00
10:53 PM,21.0,18.0,88,30.24,10.0,Calm,Calm,-,N/A,,Clear,0,2013-02-02 04:53:00
11:53 PM,21.9,19.0,89,30.23,10.0,Calm,Calm,-,N/A,,Clear,0,2013-02-02 05:53:00